Simultaneous Nadir Overpasses (SNOs) Predictions

Prediction of SNOs between AQUA and LANDSAT-8 Satellite Orbit:

Table of predicted SNOs for the next 14.0 days since TLE Epoch: 9/12/2025
Index Date (AQUA) Time (AQUA) Lat,Lon (AQUA) SZA (AQUA ) Date (LANDSAT-8) Time (LANDSAT-8) Lat,Lon (LANDSAT-8) SZA (LANDSAT-8 ) Distance(km) Time Diff (sec)
1 09/20/2025 19:01:10 75.28, -95.74 74.72 09/20/2025 19:00:05 75.29, -98.72 74.59 84.43 65
2 09/20/2025 19:50:36 -75.72, 70.64 104.89 09/20/2025 19:49:24 -75.72, 70.13 104.93 13.87 72
3 09/20/2025 20:39:56 75.80,-121.93 75.19 09/20/2025 20:38:48 75.79,-122.01 75.17 2.27 68
4 09/20/2025 21:29:13 -75.81, 45.74 104.80 09/20/2025 21:28:15 -75.82, 45.72 104.79 2.13 58
5 09/20/2025 22:18:32 75.84,-146.68 75.25 09/20/2025 22:17:40 75.85,-146.56 75.26 3.55 52
6 09/20/2025 23:07:49 -75.84, 20.99 104.74 09/20/2025 23:07:08 -75.83, 21.02 104.76 1.15 41
7 09/20/2025 23:57:07 75.82,-171.28 75.26 09/20/2025 23:56:33 75.86,-171.26 75.29 3.68 34
8 09/21/2025 00:46:24 -75.82, -3.60 104.73 09/21/2025 00:46:01 -75.84, -3.68 104.72 2.65 23
9 09/21/2025 01:35:43 75.86, 163.97 75.32 09/21/2025 01:35:26 75.86, 164.03 75.32 1.80 17
10 09/21/2025 02:25:00 -75.86, -28.35 104.67 09/21/2025 02:24:54 -75.84, -28.39 104.69 1.83 6
11 09/21/2025 03:14:18 75.84, 139.37 75.33 09/21/2025 03:14:19 75.87, 139.33 75.36 3.22 1
12 09/21/2025 04:03:35 -75.84, -52.95 104.66 09/21/2025 04:03:47 -75.85, -53.09 104.65 3.95 12
13 09/21/2025 04:52:54 75.87, 114.62 75.39 09/21/2025 04:53:12 75.87, 114.63 75.39 0.10 18
14 09/21/2025 05:42:11 -75.87, -77.70 104.60 09/21/2025 05:42:40 -75.85, -77.79 104.62 3.38 29
15 09/21/2025 06:31:30 75.91, 89.88 75.44 09/21/2025 06:32:05 75.88, 89.93 75.43 3.37 35
16 09/21/2025 07:20:47 -75.91,-102.45 104.55 09/21/2025 07:21:32 -75.91,-102.35 104.53 2.67 45
17 09/21/2025 08:10:05 75.89, 65.28 75.46 09/21/2025 08:10:58 75.89, 65.22 75.46 1.66 53
18 09/21/2025 08:59:22 -75.89,-127.04 104.53 09/21/2025 09:00:25 -75.92,-127.05 104.50 2.67 63
19 09/21/2025 09:48:41 75.93, 40.53 75.51 09/21/2025 09:49:51 75.89, 40.52 75.49 3.76 70
20 09/21/2025 10:38:04 -76.21,-152.72 104.23 09/21/2025 10:39:12 -76.21,-150.84 104.14 49.89 68
21 09/21/2025 11:27:29 76.54, 13.86 76.08 09/21/2025 11:28:32 76.48, 17.68 76.18 99.33 63



Historial Predications of SNOs between AQUA and LANDSAT-8
